FW5246 Weather Reports


time (UTC)temp
C
wind
direction
speed
KPH
gust
KPH
rain 1hr
cm
rain 24hr
cm
rain mn
cm
humidity
%
barometer
mb
20260506231553 8 360 0.0 4.8 0.00 0.64 0.15 95 1010.2
20260506230050 8 360 0.0 4.8 0.00 0.64 0.15 96 1009.9
20260506224545 8 360 0.0 0.0 0.00 0.64 0.15 96 1009.7
20260506223042 8 360 0.0 8.0 0.00 0.64 0.15 95 1009.5
20260506221540 9 360 0.0 6.4 0.00 0.64 0.15 96 1009.0
20260506220036 10 360 0.0 3.2 0.00 0.64 0.15 96 1008.5
20260506214504 10 360 0.0 3.2 0.03 0.64 0.15 96 1008.5
20260506213003 10 360 0.0 4.8 0.05 0.64 0.15 96 1008.1
20260506211530 10 360 0.0 4.8 0.08 0.64 0.15 95 1007.5
20260506210033 11 360 0.0 3.2 0.13 0.61 0.13 95 1007.2
20260506204521 11 360 0.0 4.8 0.13 0.61 0.13 95 1006.9
20260506203016 12 360 1.6 4.8 0.10 0.58 0.10 94 1006.6
20260506201513 13 360 1.6 8.0 0.08 0.56 0.08 93 1006.3
20260506200020 15 360 0.0 4.8 0.00 0.48 0.00 96 1005.9
20260506194505 15 360 0.0 8.0 0.00 0.48 0.00 96 1006.0
20260506193004 15 360 0.0 3.2 0.00 0.48 0.48 96 1006.0
20260506191504 15 360 0.0 8.0 0.00 0.48 0.48 96 1006.1
20260506190004 15 360 0.0 8.0 0.00 0.48 0.48 97 1006.0
20260506184504 14 360 0.0 4.8 0.00 0.48 0.48 97 1006.0
20260506183100 14 360 0.0 1.6 0.00 0.48 0.48 97 1006.2
20260506181600 14 360 0.0 8.0 0.00 0.48 0.48 97 1006.3
20260506180100 14 360 0.0 4.8 0.00 0.48 0.48 97 1006.4
20260506174600 14 360 1.6 6.4 0.03 0.48 0.48 97 1006.2
20260506173028 14 360 0.0 6.4 0.05 0.48 0.48 97 1006.1
20260506171529 15 360 1.6 8.0 0.05 0.48 0.48 97 1006.1
20260506170025 14 360 3.2 8.0 0.05 0.48 0.48 97 1006.3
20260506164525 14 360 0.0 0.0 0.03 0.46 0.46 97 1006.5
20260506163025 14 360 0.0 4.8 0.03 0.43 0.43 97 1006.4
20260506161527 14 360 0.0 6.4 0.08 0.43 0.43 96 1006.4
20260506160022 14 360 1.6 6.4 0.10 0.43 0.43 97 1006.4
20260506154521 14 360 1.6 9.7 0.10 0.43 0.43 96 1006.5
20260506153020 14 360 3.2 9.7 0.08 0.38 0.38 96 1006.7
20260506151521 14 360 3.2 12.9 0.05 0.36 0.36 96 1006.7
20260506150050 14 360 3.2 12.9 0.05 0.33 0.33 96 1006.6
20260506144550 13 360 3.2 12.9 0.10 0.33 0.33 96 1006.4
20260506143047 13 360 3.2 9.7 0.13 0.30 0.30 96 1006.4
20260506141604 13 360 1.6 6.4 0.18 0.30 0.30 96 1006.5
20260506140047 13 360 1.6 4.8 0.20 0.28 0.28 95 1006.5
20260506134544 13 360 0.0 1.6 0.23 0.23 0.23 94 1006.7
20260506133042 13 360 0.0 0.0 0.18 0.18 0.18 94 1007.1
20260506131543 13 360 0.0 0.0 0.13 0.13 0.13 94 1007.3
20260506130041 13 360 0.0 0.0 0.08 0.08 0.08 92 1007.7
20260506124541 13 360 0.0 0.0 0.00 0.00 0.00 90 1007.4
20260506123014 14 360 0.0 0.0 0.00 0.00 0.00 90 1006.8
20260506121509 13 360 0.0 0.0 0.00 0.00 0.00 88 1006.6
20260506120105 13 360 0.0 0.0 0.00 0.00 0.00 86 1006.9
20260506114543 14 360 0.0 0.0 0.00 0.00 0.00 87 1007.0
20260506113010 13 360 0.0 0.0 0.00 0.00 0.00 85 1006.8
20260506111506 13 360 0.0 0.0 0.00 0.00 0.00 83 1006.8
20260506110004 13 360 0.0 0.0 0.00 0.00 0.00 81 1006.9
20260506104504 13 360 0.0 0.0 0.00 0.00 0.00 83 1006.9
20260506103005 13 360 0.0 0.0 0.00 0.00 0.00 82 1006.4
20260506101503 13 360 0.0 0.0 0.00 0.00 0.00 83 1006.5
20260506100100 13 360 0.0 0.0 0.00 0.00 0.00 80 1006.3
20260506094600 13 360 0.0 0.0 0.00 0.00 0.00 80 1006.6
20260506093059 13 360 0.0 0.0 0.00 0.00 0.00 79 1006.5
20260506091559 13 360 0.0 0.0 0.00 0.00 0.00 79 1006.6
20260506090056 13 360 0.0 0.0 0.00 0.00 0.00 79 1006.6
20260506084556 13 360 0.0 0.0 0.00 0.00 0.00 79 1006.6
20260506083055 13 360 0.0 0.0 0.00 0.00 0.00 79 1006.9
20260506081555 13 360 0.0 0.0 0.00 0.00 0.00 82 1006.8
20260506073022 13 360 0.0 0.0 0.00 0.00 0.00 83 1006.7
20260506071522 12 360 0.0 0.0 0.00 0.00 0.00 84 1006.9
20260506061549 12 360 0.0 0.0 0.00 0.00 0.00 85 1007.2
20260506044551 13 360 0.0 0.0 0.00 0.00 0.00 83 1007.9
20260506043038 13 360 0.0 0.0 0.00 0.00 0.00 83 1007.8
20260506041546 13 360 0.0 0.0 0.00 0.00 0.00 82 1008.0
20260506040041 13 360 0.0 0.0 0.00 0.00 0.00 82 1008.2
20260506034533 13 360 0.0 0.0 0.00 0.00 0.00 80 1008.3
20260506033030 13 360 0.0 0.0 0.00 0.00 0.00 79 1008.2
20260506031531 14 360 0.0 0.0 0.00 0.00 0.00 79 1008.3
20260506030025 14 360 0.0 0.0 0.00 0.00 0.00 77 1008.2
20260506024552 15 360 0.0 0.0 0.00 0.00 0.00 74 1008.1
20260506023050 15 360 0.0 0.0 0.00 0.00 0.00 74 1008.1
20260506021546 16 360 0.0 0.0 0.00 0.00 0.00 73 1008.0
20260506020044 16 360 0.0 0.0 0.00 0.00 0.00 72 1008.1
20260506014540 16 360 0.0 0.0 0.00 0.00 0.00 69 1008.1
20260506013044 17 360 0.0 0.0 0.00 0.00 0.00 68 1007.9
20260506011533 17 360 0.0 0.0 0.00 0.00 0.00 66 1007.7
20260506010032 17 360 0.0 0.0 0.00 0.00 0.00 63 1007.5
20260506004533 18 360 0.0 0.0 0.00 0.00 0.00 62 1007.4
20260506003023 19 360 0.0 0.0 0.00 0.00 0.00 61 1007.2
20260506001518 20 360 0.0 0.0 0.00 0.00 0.00 61 1007.3
20260506000016 20 360 0.0 0.0 0.00 0.00 0.00 61 1007.0
20260505234524 20 360 0.0 0.0 0.00 0.00 0.00 58 1006.9
20260505233015 21 360 0.0 0.0 0.00 0.00 0.00 56 1006.9